Weather History for KORB - January, 2014

Change the Weather History Date:

Monday, January 20, 2014

  Actual Average Record
Temperature  
Mean Temperature -8 °F -  
Max Temperature 1 °F 13 °F 24 °F (1997)
Min Temperature -18 °F -1 °F -27 °F (2000)
Degree Days  
Heating Degree Days 74    
Moisture  
Dew Point -18 °F    
Average Humidity 63    
Maximum Humidity 78    
Minimum Humidity 38    
Precipitation  
Precipitation 0.00 in - - ()
Sea Level Pressure  
Sea Level Pressure 30.09 in    
Wind  
Wind Speed 3 mph (NW)    
Max Wind Speed 12 mph    
Max Gust Speed 16 mph    
Visibility 10 miles    
Events Snow    
Averages and records for this station are not official NWS values.
T = Trace of Precipitation, MM = Missing Value Source: NWS Daily Summary

Daily Weather History Graph

Daily Weather History Graph

Search for Another Location

Airport or City:

Trip Planner

Search our weather history database for the weather conditions in past years. The results will help you decide how hot, cold, wet, or windy it might be!

Date:

Astronomy

Jan. 20, 2014 Rise Set
Actual Time 7:52 AM CST 4:53 PM CST
Civil Twilight 7:17 AM CST 5:27 PM CST
Nautical Twilight 6:39 AM CST 6:05 PM CST
Astronomical Twilight 6:02 AM CST 6:42 PM CST
Moon 9:52 PM CST (1/20) 9:30 AM CST (1/20)
Length of Visible Light 10h 09m
Length of Day
9h 00m
Waning Gibbous, 82% of the Moon is Illuminated
Jan 20
Waning Gibbous
Jan 23
Last Quarter
Jan 30
New
Feb 6
First Quarter
Feb 14
Full

Hourly Weather History & Observations

Time (CST) Temp. Windchill Dew Point Humidity Pressure Visibility Wind Dir Wind Speed Gust Speed Precip Events Conditions
12:13 AM 1.4 °F - -5.8 °F 72% 29.72 in 7.0 mi Calm Calm - N/A Snow Light Snow
12:33 AM 1.4 °F - -5.8 °F 72% 29.72 in 5.0 mi Calm Calm - N/A Snow Light Snow
12:53 AM -0.4 °F - -5.8 °F 78% 29.73 in 7.0 mi Calm Calm - N/A Snow Light Snow
1:13 AM -0.4 °F - -7.6 °F 72% 29.75 in 7.0 mi Calm Calm - N/A Snow Light Snow
1:33 AM -0.4 °F - -7.6 °F 72% 29.76 in 4.0 mi Calm Calm - N/A Snow Light Snow
1:53 AM -2.2 °F - -7.6 °F 78% 29.76 in 4.0 mi Calm Calm - N/A Snow Light Snow
2:13 AM -2.2 °F - -9.4 °F 71% 29.77 in 7.0 mi Calm Calm - N/A Snow Light Snow
2:33 AM -2.2 °F - -9.4 °F 71% 29.78 in 7.0 mi Calm Calm - N/A Snow Light Snow
2:53 AM -2.2 °F -10.4 °F -9.4 °F 71% 29.79 in 10.0 mi North 3.5 mph - N/A   Overcast
3:13 AM -2.2 °F - -9.4 °F 71% 29.81 in 7.0 mi Calm Calm - N/A   Overcast
3:33 AM -4.0 °F - -9.4 °F 78% 29.81 in 7.0 mi Calm Calm - N/A   Overcast
3:53 AM -4.0 °F - -11.2 °F 71% 29.82 in 10.0 mi Calm Calm - N/A   Overcast
4:13 AM -5.8 °F - -11.2 °F 77% 29.83 in 10.0 mi Calm Calm - N/A   Overcast
4:33 AM -5.8 °F - -11.2 °F 77% 29.85 in 10.0 mi Calm Calm - N/A   Scattered Clouds
4:53 AM -5.8 °F - -13.0 °F 71% 29.86 in 10.0 mi Calm Calm - N/A   Clear
5:13 AM -7.6 °F - -13.0 °F 77% 29.87 in 10.0 mi Calm Calm - N/A   Clear
5:33 AM -7.6 °F - -14.8 °F 71% 29.89 in 10.0 mi Calm Calm - N/A   Clear
5:53 AM -7.6 °F - -14.8 °F 71% 29.90 in 10.0 mi Calm Calm - N/A   Clear
6:13 AM -7.6 °F - -14.8 °F 71% 29.92 in 10.0 mi Calm Calm - N/A   Scattered Clouds
6:33 AM -7.6 °F - -13.0 °F 77% 29.94 in 10.0 mi Calm Calm - N/A   Scattered Clouds
6:53 AM -7.6 °F - -14.8 °F 71% 29.95 in 10.0 mi Calm Calm - N/A   Scattered Clouds
7:13 AM -9.4 °F - -14.8 °F 77% 29.96 in 10.0 mi Calm Calm - N/A   Scattered Clouds
7:33 AM -9.4 °F - -14.8 °F 77% 29.97 in 10.0 mi Calm Calm - N/A   Clear
7:53 AM -9.4 °F - -16.6 °F 71% 29.98 in 10.0 mi Calm Calm - N/A   Clear
8:13 AM -9.4 °F - -16.6 °F 71% 29.99 in 10.0 mi Calm Calm - N/A   Clear
8:33 AM -9.4 °F - -16.6 °F 71% 30.01 in 10.0 mi Calm Calm - N/A   Clear
8:53 AM -9.4 °F -18.6 °F -16.6 °F 71% 30.02 in 10.0 mi North 3.5 mph - N/A   Clear
9:13 AM -9.4 °F -18.6 °F -18.4 °F 65% 30.04 in 10.0 mi North 3.5 mph - N/A   Clear
9:33 AM -9.4 °F - -18.4 °F 65% 30.05 in 10.0 mi Calm Calm - N/A   Clear
9:53 AM -7.6 °F -18.8 °F -18.4 °F 59% 30.07 in 10.0 mi North 4.6 mph - N/A   Clear
10:13 AM -7.6 °F -16.5 °F -20.2 °F 54% 30.09 in 10.0 mi North 3.5 mph - N/A   Clear
10:33 AM -7.6 °F -18.8 °F -20.2 °F 54% 30.10 in 10.0 mi North 4.6 mph - N/A   Clear
10:53 AM -7.6 °F -18.8 °F -23.8 °F 45% 30.12 in 10.0 mi NNE 4.6 mph - N/A   Clear
11:13 AM -7.6 °F -18.8 °F -22.0 °F 50% 30.12 in 10.0 mi North 4.6 mph - N/A   Clear
11:33 AM -5.8 °F -19.9 °F -20.2 °F 50% 30.12 in 10.0 mi NW 6.9 mph - N/A   Clear
11:53 AM -7.6 °F -23.4 °F -23.8 °F 45% 30.12 in 10.0 mi NW 8.1 mph - N/A   Clear
12:13 PM -5.8 °F -19.9 °F -23.8 °F 42% 30.13 in 10.0 mi WNW 6.9 mph - N/A   Clear
12:33 PM -5.8 °F -21.2 °F -23.8 °F 42% 30.14 in 10.0 mi NW 8.1 mph - N/A   Clear
12:53 PM -5.8 °F -22.4 °F -22.0 °F 46% 30.14 in 10.0 mi NW 9.2 mph 16.1 mph N/A   Clear
1:13 PM -5.8 °F -19.9 °F -23.8 °F 42% 30.15 in 10.0 mi NNW 6.9 mph - N/A   Clear
1:33 PM -7.6 °F -23.4 °F -25.6 °F 41% 30.16 in 10.0 mi NW 8.1 mph - N/A   Clear
1:53 PM -5.8 °F -19.9 °F -25.6 °F 38% 30.17 in 10.0 mi NW 6.9 mph - N/A   Clear
2:13 PM -5.8 °F -21.2 °F -23.8 °F 42% 30.18 in 10.0 mi NNW 8.1 mph - N/A   Clear
2:33 PM -5.8 °F -18.4 °F -23.8 °F 42% 30.19 in 10.0 mi NW 5.8 mph - N/A   Clear
2:53 PM -5.8 °F -18.4 °F -22.0 °F 46% 30.20 in 10.0 mi NW 5.8 mph - N/A   Clear
3:13 PM -5.8 °F -19.9 °F -20.2 °F 50% 30.21 in 10.0 mi NW 6.9 mph - N/A   Clear
3:34 PM -5.8 °F -21.2 °F -20.2 °F 50% 30.22 in 10.0 mi NW 8.1 mph - N/A   Clear
3:53 PM -7.6 °F -25.7 °F -20.2 °F 54% 30.23 in 10.0 mi NW 10.4 mph - N/A   Clear
4:13 PM -7.6 °F -22.1 °F -20.2 °F 54% 30.24 in 10.0 mi NNW 6.9 mph - N/A   Clear
4:33 PM -9.4 °F -22.7 °F -20.2 °F 59% 30.25 in 10.0 mi NW 5.8 mph - N/A   Clear
4:53 PM -9.4 °F -18.6 °F -20.2 °F 59% 30.26 in 10.0 mi NW 3.5 mph - N/A   Clear
5:13 PM -9.4 °F - -20.2 °F 59% 30.27 in 10.0 mi Calm Calm - N/A   Clear
5:33 PM -11.2 °F -24.8 °F -20.2 °F 64% 30.28 in 10.0 mi NW 5.8 mph - N/A   Clear
5:53 PM -9.4 °F -25.6 °F -20.2 °F 59% 30.28 in 10.0 mi NW 8.1 mph - N/A   Clear
6:13 PM -9.4 °F -24.3 °F -20.2 °F 59% 30.30 in 10.0 mi NW 6.9 mph - N/A   Clear
6:33 PM -11.2 °F -24.8 °F -22.0 °F 59% 30.31 in 10.0 mi WNW 5.8 mph - N/A   Clear
6:53 PM -11.2 °F -29.0 °F -20.2 °F 64% 30.31 in 10.0 mi NW 9.2 mph - N/A   Clear
7:13 PM -11.2 °F -29.0 °F -22.0 °F 59% 30.32 in 10.0 mi WNW 9.2 mph - N/A   Clear
7:33 PM -11.2 °F -31.1 °F -22.0 °F 59% 30.32 in 10.0 mi NW 11.5 mph - N/A   Clear
7:53 PM -13.0 °F -27.0 °F -22.0 °F 64% 30.33 in 10.0 mi NW 5.8 mph - N/A   Clear
8:13 PM -13.0 °F -30.0 °F -23.8 °F 59% 30.33 in 10.0 mi WNW 8.1 mph - N/A   Clear
8:33 PM -14.8 °F -32.2 °F -23.8 °F 64% 30.33 in 10.0 mi WNW 8.1 mph - N/A   Clear
8:53 PM -14.8 °F -32.2 °F -23.8 °F 64% 30.33 in 10.0 mi WNW 8.1 mph - N/A   Clear
9:13 PM -16.6 °F -32.9 °F -23.8 °F 70% 30.34 in 10.0 mi WNW 6.9 mph - N/A   Clear
9:33 PM -16.6 °F -32.9 °F -23.8 °F 70% 30.33 in 10.0 mi WNW 6.9 mph - N/A   Clear
9:53 PM -16.6 °F -31.3 °F -25.6 °F 64% 30.33 in 10.0 mi WNW 5.8 mph - N/A   Clear
10:13 PM -18.4 °F -33.4 °F -25.6 °F 70% 30.34 in 10.0 mi WNW 5.8 mph - N/A   Clear
10:33 PM -18.4 °F -35.1 °F -25.6 °F 70% 30.33 in 10.0 mi WNW 6.9 mph - N/A   Clear
10:53 PM -18.4 °F -35.1 °F -25.6 °F 70% 30.33 in 10.0 mi WNW 6.9 mph - N/A   Clear
11:13 PM -18.4 °F -35.1 °F -25.6 °F 70% 30.33 in 10.0 mi WNW 6.9 mph - N/A   Clear
11:33 PM -18.4 °F -35.1 °F -25.6 °F 70% 30.33 in 10.0 mi NW 6.9 mph - N/A   Clear
11:53 PM -18.4 °F -35.1 °F -25.6 °F 70% 30.33 in 10.0 mi WNW 6.9 mph - N/A   Clear